Powrót do katalogu

STARLINK-11586

AktywnyŁącznośćVLEO
NORAD 63009·PAYLOAD·🇺🇸 United States

Wystrzelony Feb 15, 2025 z Cape Canaveral Space Force Station

Loading…

Następne Przeloty (najbliższe 24 godziny)

TLE

ŚwieżeSource: CelesTrak SupGP

Epoka: Sep 15, 2026, 02:15 UTC

1 63009C 25032E   26258.09423611  .00098089  00000+0  76169-3 0  2582
2 63009  43.0002 133.6823 0001669 271.5483  34.4868 15.70794939    15

Śledź STARLINK-11586 w czasie rzeczywistym z AllMySat

Download on the App Store